Regional Weather Roundup
Issued by NWS Lake Charles, LA

Home | Current Version | Previous Version | Text Only | Print | Product List | Glossary On
Versions: 1 2 3 4 5 6 7 8 9 10 11 12 13 14 15 16 17 18 19 20 21 22 23 24 25 26 27 28 29 30 31 32 33 34 35 36 37 38 39 40 41 42 43 44 45 46 47 48 49 50
000
ASUS44 KLCH 291210
RWRLCH
REGIONAL WEATHER ROUNDUP
NATIONAL WEATHER SERVICE LAKE CHARLES LA
700 AM CDT WED MAR 29 2017

Note: "fair" indicates few or no clouds below 12,000 feet with no
significant weather and/or obstructions to visibility.


ACROSS SOUTHEAST TEXAS

CITY           SKY/WX    TMP DP  RH WIND       PRES   REMARKS
BEAUMONT       MOCLDY    69  66  90 E3        29.85R
BEAUMONT CITY  FAIR     N/A N/A N/A E3        29.86F
ORANGE         MOSUNNY   72  68  87 S5        29.89R
JASPER         CLOUDY    71  67  87 CALM      29.89F
$$

ACROSS CENTRAL LOUISIANA

CITY           SKY/WX    TMP DP  RH WIND       PRES   REMARKS
LEESVILLE      CLEAR     68  66  94 SE5       29.89R
FULLERTON      FAIR      69  65  86 CALM      29.89R
ALEXANDRIA INT PTCLDY    67  65  93 CALM      29.91R
ESLER FIELD    MOCLDY    68  67  96 W5        29.93R
DERIDDER       FAIR      70  67  92 CALM      29.91S
OAKDALE        CLOUDY    69  66  90 CALM      29.91R
OPELOUSAS      FAIR      68  65  92 MISG      29.86R
$$

ACROSS SOUTHWEST AND SOUTH CENTRAL LOUISIANA

CITY           SKY/WX    TMP DP  RH WIND       PRES   REMARKS
SULPHUR        PTSUNNY   72  67  83 S5        29.90R
LAKE CHARLES   MOCLDY    70  66  87 CALM      29.90R
CHENNAULT INT  CLOUDY    70  66  89 W3        29.90R
CAMERON PHI    NOT AVBL
DEQUINCY       PTSUNNY   70  65  85 CALM      29.89S
JENNINGS       FAIR      69  66  90 S3        29.86R
LAFAYETTE      PTCLDY    73  68  84 VRB3      29.86R
NEW IBERIA     PTCLDY    69  65  86 SE9       29.86R
ABBEVILLE      FAIR      70  70 100 SE10      29.86R
PATTERSON      CLOUDY    70  67  90 SE7       29.87R
SALT POINT       N/A     70  66  87 SE12      29.84R
$$

SELECTED SITES ACROSS THE REGION

CITY           SKY/WX    TMP DP  RH WIND       PRES   REMARKS
HOUSTON BUSH   CLOUDY    70  66  87 E7        29.82R
HOUSTON HOBBY  MOCLDY    72  67  84 E5        29.81R
GALVESTON      PTCLDY    74  69  85 SE8       29.81F
COLLEGE STAT   LGT RAIN  63  61  93 E10       29.77F
CONROE         NOT AVBL
HUNTSVILLE     CLOUDY    63  60  90 CALM      29.82F
LUFKIN         LGT RAIN  62  60  93 W3        29.86R FOG
SHREVEPORT     CLOUDY    68  66  93 S8        29.86R
MONROE         CLOUDY    67  64  90 W8        29.95R
NATCHEZ MS     NOT AVBL
BATON ROUGE    PTCLDY    69  66  90 E5        29.89R
N.O. INTL ARPT MOCLDY    69  66  90 SE12      29.86S
SLIDELL        CLOUDY    70  67  90 SE10G18   29.88S
$$

MARINE REPORTS

STATION/POSITION TIME  SKY/WX   TEMP    WIND        PRES    VSBY
                                AIR SEA DIR/SP/G
                 (UTC)          (F)     (DEG/KT/KT) (MB)    (MI)
BUOY 30 S HIGH I 1150            72 71  110/  4/  8 1010.0R
WVE H/P(F/S)=  6/ 8

SEA RIM ST PARK  1200            73     180/  6/  6 1011.5R
PORT ARTHUR      1148               74  150/  4/  5 1011.3R
SABINE PASS N    1148            72 77  200/  2/  4 1012.7R
TEXAS POINT      NOT AVBL
CALCASIEU PASS   1148            73 75  190/ 11/ 14   N/A
LK CHARLES BEACH 1148            71 72              1012.8R
MARSH ISLAND     1100            73                   N/A
FRESH WATER LOCK 1148            73 76  140/ 16/ 21 1010.7R
AMERADA PASS     1148            72 63  140/  8/ 12 1010.9R
$$



USA.gov is the U.S. government's official web portal to all federal, state and local government web resources and services.